Flag for Germany Weather past 2 weeks in Kamp-Lintfort, North Rhine-Westphalia, Germany

Now
61 °F

Overcast.


Feels Like: 61 °F
Forecast: 50 / 66 °F
Wind: 3 mph from Southwest

Location: Duesseldorf

Current Time: Aug 21, 2014 at 8:42:42 PM

Latest Report: Aug 21, 2014 at 8:00 PM


Visibility: 28 mi

Pressure: 29.96 "Hg

Humidity: 60%

Dew point: 47 °F

Location of Kamp-LintfortLocation

Historic Weather in Kamp-Lintfort — Graph

°F

Kamp-Lintfort temperature yesterday

Maximum temperature yesterday: 65 °F (at 4:00 PM)
Minimum temperature yesterday: 45 °F (at 7:00 AM)
Average temperature yesterday: 55 °F

Past Weeks' High & Low Weather Summary

 TemperatureHumidityPressure
High77 °F (Aug 8, 1:00 PM)96% (Aug 21, 3:00 AM)30.10 "Hg (Aug 21, 3:00 AM)
Low45 °F (Aug 21, 6:00 AM)44% (Aug 20, 4:00 PM)29.57 "Hg (Aug 10, 7:00 PM)
Average61 °F76%29.87 "Hg
* Reported Aug 6 7:00 PM — Aug 21 7:00 PM, Kamp-Lintfort, Weather by CustomWeather, © 2014

Note: Actual official high and low records may vary slightly from our data, if they occured in-between our weather recording intervals... More about our weather records

Advertising

Kamp-Lintfort weather history for previous 24 hours

 ConditionsComfort  
Time TempWeatherWind HumidityBarometerVisibility
7:00 PM
Aug 21
63 °FPartly sunny.3 mph51%29.97 "Hg28 mi
6:00 PM62 °FPartly sunny.3 mph54%29.98 "Hg25 mi
4:00 PM63 °FMild.5 mph52%30.01 "HgN/A
3:00 PM62 °FOvercast.6 mph55%30.02 "Hg25 mi
2:00 PM64 °FScattered clouds.5 mph51%30.02 "Hg22 mi
1:00 PM63 °FScattered clouds.6 mph59%30.03 "Hg22 mi
12:00 PM60 °FPassing clouds.6 mph65%30.03 "Hg16 mi
10:00 AM55 °FPassing clouds.3 mph76%30.04 "Hg9 mi
9:00 AM53 °FPassing clouds.3 mph83%30.04 "Hg8 mi
8:00 AM51 °FPassing clouds.3 mph88%30.03 "Hg7 mi
7:00 AM49 °FPassing clouds.3 mph89%30.03 "Hg6 mi
6:00 AM45 °FPassing clouds.2 mph93%30.03 "Hg9 mi
5:00 AM46 °FPassing clouds.3 mph95%30.03 "Hg9 mi
4:00 AM47 °FFog.2 mph96%30.03 "Hg9 mi
3:00 AM48 °FFog.2 mph96%30.03 "Hg9 mi
2:00 AM48 °FFog.1 mph95%30.03 "Hg12 mi
1:00 AM49 °FFog.1 mph95%30.03 "Hg16 mi
12:00 AM51 °FPassing clouds.1 mph93%30.03 "Hg19 mi
10:00 PM
Aug 20
53 °FOvercast.3 mph86%30.03 "Hg22 mi
9:00 PM53 °FOvercast.1 mph87%30.02 "Hg12 mi
8:00 PM53 °FSprinkles. Overcast.3 mph89%30.01 "Hg12 mi
Weather by CustomWeather, © 2014

See weather overviewHow to use our weather pages